Visalia, CA

10:55 PM PDT on October 20, 2019 (GMT -0700)
Visalia Municipal

Weather History for KVIS - September, 2019

Change the Weather History Date:

Sunday, September 22, 2019

  Actual Average Record
Temperature  
Mean Temperature 73 °F -  
Max Temperature 91 °F 85 °F 106 °F (1928)
Min Temperature 55 °F 57 °F 46 °F (1986)
Cooling Degree Days 8    
Growing Degree Days 23 (Base 50)    
Moisture  
Dew Point 51 °F    
Average Humidity 52    
Maximum Humidity 83    
Minimum Humidity 24    
Precipitation  
Precipitation 0.00 in - - ()
Sea Level Pressure  
Sea Level Pressure 29.91 in    
Wind  
Wind Speed 2 mph (SE)    
Max Wind Speed 7 mph    
Max Gust Speed -    
Visibility 10 miles    
Events      
Averages and records for this station are not official NWS values.
T = Trace of Precipitation, MM = Missing Value Source: NWS Daily Summary

Daily Weather History Graph

Daily Weather History Graph

Search for Another Location

Airport or City:

Astronomy

Sep. 22, 2019 Rise Set
Actual Time 6:45 AM PDT 6:54 PM PDT
Civil Twilight 6:19 AM PDT 7:20 PM PDT
Nautical Twilight 5:49 AM PDT 7:50 PM PDT
Astronomical Twilight 5:19 AM PDT 8:20 PM PDT
Moon No Moon Rise 2:44 PM PDT (9/22)
Length of Visible Light 13h 00m
Length of Day
12h 09m
Last Quarter, 43% of the Moon is Illuminated
Sep 22
Last Quarter
Sep 28
New
Oct 5
First Quarter
Oct 13
Full
Oct 21
Last Quarter

Hourly Weather History & Observations

Time (PDT) Temp. Heat Index Dew Point Humidity Pressure Visibility Wind Dir Wind Speed Gust Speed Precip Events Conditions
12:56 AM 61.0 °F - 52.0 °F 72% 29.93 in 10.0 mi Calm Calm - N/A   Clear
1:56 AM 60.1 °F - 52.0 °F 75% 29.94 in 10.0 mi Calm Calm - N/A   Clear
2:56 AM 57.9 °F - 52.0 °F 81% 29.93 in 10.0 mi SE 4.6 mph - N/A   Clear
3:56 AM 57.0 °F - 52.0 °F 83% 29.93 in 10.0 mi ESE 3.5 mph - N/A   Clear
4:56 AM 57.0 °F - 50.0 °F 77% 29.93 in 10.0 mi ESE 5.8 mph - N/A   Clear
5:56 AM 57.9 °F - 50.0 °F 75% 29.94 in 10.0 mi East 3.5 mph - N/A   Clear
6:56 AM 55.0 °F - 48.9 °F 80% 29.95 in 10.0 mi Calm Calm - N/A   Clear
7:56 AM 60.1 °F - 51.1 °F 72% 29.96 in 10.0 mi ESE 4.6 mph - N/A   Clear
8:56 AM 64.9 °F - 51.1 °F 61% 29.98 in 10.0 mi SE 4.6 mph - N/A   Clear
9:56 AM 72.0 °F - 52.0 °F 49% 29.98 in 10.0 mi SE 5.8 mph - N/A   Clear
10:56 AM 78.1 °F - 52.0 °F 40% 29.97 in 10.0 mi Calm Calm - N/A   Clear
11:56 AM 82.9 °F 81.8 °F 53.1 °F 36% 29.95 in 10.0 mi Variable 3.5 mph - N/A   Clear
12:56 PM 86.0 °F - 50.0 °F 29% 29.93 in 10.0 mi SW 3.5 mph - N/A   Clear
1:56 PM 88.0 °F 85.7 °F 53.1 °F 30% 29.90 in 9.0 mi West 4.6 mph - N/A   Clear
2:56 PM 90.0 °F - 51.1 °F 26% 29.88 in 10.0 mi Variable 5.8 mph - N/A   Clear
3:56 PM 90.0 °F - 48.9 °F 24% 29.86 in 10.0 mi Calm Calm - N/A   Clear
4:56 PM 91.0 °F - 50.0 °F 24% 29.86 in 10.0 mi Variable 3.5 mph - N/A   Clear
5:56 PM 88.0 °F - 48.9 °F 26% 29.85 in 10.0 mi NNE 6.9 mph - N/A   Clear
6:56 PM 82.9 °F - 50.0 °F 32% 29.85 in 10.0 mi Calm Calm - N/A   Clear
7:56 PM 75.0 °F - 54.0 °F 48% 29.87 in 10.0 mi West 5.8 mph - N/A   Clear
8:56 PM 75.0 °F - 53.1 °F 46% 29.89 in 10.0 mi West 4.6 mph - N/A   Clear
9:56 PM 73.9 °F - 53.1 °F 48% 29.89 in 10.0 mi Calm Calm - N/A   Clear
10:56 PM 66.9 °F - 53.1 °F 61% 29.90 in 10.0 mi Calm Calm - N/A   Clear
11:56 PM 66.0 °F - 53.1 °F 63% 29.88 in 10.0 mi Calm Calm - N/A   Clear